Home   Weather   India   Kolkata   Past weeks
Flag for India

Past Weather in Kolkata, West Bengal, India — Yesterday and Last 2 Weeks

Currently: 73 °F. Haze. (Weather station: Calcutta / Dum Dum, India). See more current weather

Past Weather in Kolkata — Graph

°F

Kolkata Temperature Yesterday

Maximum temperature yesterday: 88 °F (at 2:30 pm)
Minimum temperature yesterday: 75 °F (at 4:30 am)
Average temperature yesterday: 80 °F

High & Low Weather Summary for the Past Weeks

 TemperatureHumidityPressure
High90 °F (Feb 21, 11:30 am)100% (Feb 19, 8:00 am)30.07 "Hg (Feb 19, 8:00 am)
Low63 °F (Feb 26, 4:30 am)34% (Feb 27, 5:00 pm)29.77 "Hg (Feb 20, 2:30 pm)
Average77 °F68%29.92 "Hg
* Reported Feb 18 12:30 am — Mar 4 1:00 am, Kolkata. Weather by CustomWeather, © 2024

Note: Actual official high and low records may vary slightly from our data, if they occured in-between our weather recording intervals... More about our weather records

Kolkata Weather History for the Previous 24 Hours

Scroll right to see more
 ConditionsComfort  
Time TempWeatherWind HumidityBarometerVisibility
1:00 am
Mon, Mar 4
75 °FHaze.No wind69%29.86 "Hg2 mi
12:30 am75 °FHaze.No wind69%29.86 "Hg2 mi
12:00 am75 °FHaze.5 mph74%29.86 "Hg2 mi
11:30 pm
Sun, Mar 3
75 °FHaze.3 mph69%29.86 "Hg2 mi
11:00 pm75 °FHaze.3 mph69%29.89 "Hg2 mi
10:30 pm77 °FHaze.3 mph65%29.89 "Hg2 mi
10:00 pm77 °FHaze.3 mph65%29.89 "Hg2 mi
9:30 pm79 °FHaze.3 mph61%29.89 "Hg2 mi
9:00 pm79 °FHaze.3 mph61%29.92 "Hg2 mi
8:30 pm79 °FHaze.3 mph61%29.89 "Hg2 mi
8:00 pm79 °FPassing clouds.5 mph61%29.89 "Hg2 mi
7:30 pm79 °FPassing clouds.6 mph61%29.89 "Hg2 mi
7:00 pm79 °FPassing clouds.6 mph61%29.89 "Hg2 mi
6:30 pm81 °FPassing clouds.6 mph58%29.86 "Hg2 mi
6:00 pm84 °FSunny.9 mph51%29.83 "Hg2 mi
5:30 pm84 °FScattered clouds.9 mph51%29.86 "Hg2 mi
5:00 pm86 °FScattered clouds.9 mph49%29.86 "Hg2 mi
4:30 pm86 °FScattered clouds.9 mph49%29.86 "Hg2 mi
4:00 pm88 °FScattered clouds.7 mph46%29.86 "Hg2 mi
3:30 pm88 °FScattered clouds.8 mph49%29.86 "Hg2 mi
3:00 pm88 °FScattered clouds.6 mph52%29.83 "Hg2 mi
2:30 pm88 °FScattered clouds.6 mph52%29.86 "Hg2 mi
1:30 pm86 °FScattered clouds.9 mph59%29.86 "Hg2 mi
1:00 pm86 °FScattered clouds.6 mph59%29.89 "Hg2 mi
12:30 pm86 °FScattered clouds.3 mph62%29.92 "Hg1 mi
12:00 pm86 °FScattered clouds.7 mph66%29.92 "Hg1 mi
11:30 am84 °FScattered clouds.7 mph70%29.95 "Hg1 mi
11:00 am84 °FScattered clouds.5 mph70%29.95 "Hg1 mi
10:30 am82 °FScattered clouds.3 mph74%29.95 "Hg1 mi
10:00 am82 °FScattered clouds.5 mph74%29.98 "Hg1 mi
9:30 am81 °FFog.5 mph79%29.95 "Hg1 mi
9:00 am79 °FFog.5 mph84%29.95 "Hg1 mi
8:30 am79 °FFog.6 mph84%29.95 "Hg1 mi
7:30 am77 °FFog.3 mph83%29.95 "Hg1 mi
7:00 am75 °FFog.6 mph89%29.95 "Hg1 mi
6:30 am75 °FFog.7 mph89%29.95 "Hg1 mi
6:00 am75 °FFog.6 mph89%29.92 "Hg1 mi
5:30 am75 °FFog.6 mph89%29.92 "Hg1 mi
5:00 am75 °FPassing clouds.6 mph89%29.89 "Hg2 mi
4:30 am75 °FPassing clouds.6 mph89%29.89 "Hg2 mi
4:00 am77 °FPassing clouds.7 mph83%29.89 "Hg2 mi
3:30 am77 °FPassing clouds.6 mph83%29.89 "Hg2 mi
3:00 am77 °FPassing clouds.5 mph83%29.89 "Hg2 mi
2:30 am77 °FPassing clouds.5 mph83%29.89 "Hg2 mi
2:00 am77 °FPassing clouds.5 mph79%29.89 "Hg2 mi
Weather by CustomWeather, © 2024

See weather overview